GW4987 Weather Reports


Display with metric or nautical units.
time (UTC)temp
F
wind
direction
speed
MPH
gust
MPH
rain 1hr
in
rain 24hr
in
rain mn
in
humidity
%
barometer
mb
20260901070503 67 180 6.0 6.0 0.00 0.00 0.00 62 1022.4
20260901070003 67 180 6.0 6.0 0.00 0.00 0.00 62 1022.3
20260901065503 67 180 6.0 6.0 0.00 0.00 0.00 62 1022.3
20260901065004 67 180 6.0 6.0 0.00 0.00 0.00 62 1022.3
20260901064504 67 180 6.0 6.0 0.00 0.00 0.00 62 1022.3
20260901031504 68 131 2.0 2.0 0.00 0.00 0.00 65 1021.5
20260901031004 68 131 2.0 2.0 0.00 0.00 0.00 65 1021.6
20260901025003 68 131 2.0 2.0 0.00 0.00 0.00 65 1021.5
20260901024503 68 131 2.0 2.0 0.00 0.00 0.00 65 1021.5
20260901024004 68 131 2.0 2.0 0.00 0.00 0.00 65 1021.3
20260901023503 68 131 2.0 2.0 0.00 0.00 0.00 65 1021.3
20260901023003 68 131 2.0 2.0 0.00 0.00 0.00 65 1021.1
20260901022503 68 131 2.0 2.0 0.00 0.00 0.00 65 1021.1
20260901022004 68 131 2.0 2.0 0.00 0.00 0.00 65 1021.0
20260901021504 69 114 5.0 5.0 0.00 0.00 0.00 63 1021.3
20260901021004 69 114 5.0 5.0 0.00 0.00 0.00 63 1020.9
20260901020504 69 114 5.0 5.0 0.00 0.00 0.00 63 1021.0
20260901020004 69 114 5.0 5.0 0.00 0.00 0.00 63 1021.0
20260901015504 69 113 3.0 5.0 0.00 0.00 0.00 63 1021.0
20260901013503 71 170 5.0 5.0 0.00 0.00 0.00 60 1021.1
20260901013003 71 167 3.0 4.0 0.00 0.00 0.00 60 1021.1
20260901012503 70 204 3.0 3.0 0.00 0.00 0.00 61 1021.0
20260901012003 70 143 5.0 5.0 0.00 0.00 0.00 61 1021.4
20260901011504 70 118 4.0 4.0 0.00 0.00 0.00 60 1020.9
20260901011004 70 125 5.0 5.0 0.00 0.00 0.00 60 1021.1
20260901010503 70 125 4.0 5.0 0.00 0.00 0.00 58 1021.1
20260901010004 70 125 4.0 5.0 0.00 0.00 0.00 58 1021.3
20260901005503 70 125 4.0 5.0 0.00 0.00 0.00 58 1021.4
20260901005003 70 125 4.0 5.0 0.00 0.00 0.00 58 1021.0
20260901004504 70 145 6.0 7.0 0.00 0.00 0.00 58 1021.3
20260901004003 71 145 3.0 7.0 0.00 0.00 0.00 58 1021.1
20260901003503 71 130 3.0 4.0 0.00 0.00 0.00 58 1021.3
20260901003003 71 150 2.0 7.0 0.00 0.00 0.00 58 1021.4
20260901002503 71 149 6.0 7.0 0.00 0.00 0.00 58 1021.4
20260901002004 71 181 4.0 11.0 0.00 0.00 0.00 58 1021.1
20260901001504 72 161 6.0 7.0 0.00 0.00 0.00 57 1021.3
20260831232504 74 185 8.0 9.0 0.00 0.00 0.00 56 1021.5
20260831232004 74 182 8.0 12.0 0.00 0.00 0.00 56 1021.5
20260831231504 73 210 9.0 13.0 0.00 0.00 0.00 56 1021.5
20260831231003 74 250 9.0 12.0 0.00 0.00 0.00 56 1021.5
20260831230503 75 186 5.0 14.0 0.00 0.00 0.00 55 1021.7
20260831230004 75 213 9.0 13.0 0.00 0.00 0.00 54 1021.5
20260831225504 75 181 11.0 15.0 0.00 0.00 0.00 54 1021.4
20260831225004 75 199 12.0 15.0 0.00 0.00 0.00 53 1021.5
20260831224504 75 205 8.0 10.0 0.00 0.00 0.00 54 1021.4
20260831224003 76 147 6.0 13.0 0.00 0.00 0.00 52 1021.5
20260831223503 76 212 11.0 15.0 0.00 0.00 0.00 52 1021.6
20260831223004 76 260 7.0 11.0 0.00 0.00 0.00 51 1021.7
20260831221004 76 207 8.0 9.0 0.00 0.00 0.00 52 1021.4
20260831220504 77 202 3.0 13.0 0.00 0.00 0.00 52 1021.7
20260831220004 75 217 11.0 12.0 0.00 0.00 0.00 54 1021.6
20260831215504 77 209 7.0 10.0 0.00 0.00 0.00 51 1021.6
20260831215004 78 204 6.0 19.0 0.00 0.00 0.00 50 1021.7
20260831214504 78 202 7.0 15.0 0.00 0.00 0.00 50 1021.8
20260831214004 77 201 13.0 14.0 0.00 0.00 0.00 51 1021.8
20260831213504 78 148 5.0 15.0 0.00 0.00 0.00 51 1021.8
20260831213004 79 191 12.0 15.0 0.00 0.00 0.00 49 1021.8
20260831212504 78 282 3.0 13.0 0.00 0.00 0.00 51 1022.2
20260831212004 78 200 3.0 13.0 0.00 0.00 0.00 52 1022.0
20260831211504 78 216 14.0 17.0 0.00 0.00 0.00 52 1022.1
20260831211003 78 81 3.0 15.0 0.00 0.00 0.00 50 1022.2
20260831210504 76 135 7.0 11.0 0.00 0.00 0.00 52 1022.2
20260831210004 78 150 9.0 11.0 0.00 0.00 0.00 49 1022.3
20260831205503 77 130 10.0 15.0 0.00 0.00 0.00 51 1022.3
20260831205008 77 121 4.0 9.0 0.00 0.00 0.00 49 1022.3
20260831204516 77 79 2.0 7.0 0.00 0.00 0.00 49 1022.5
20260831200004 76 123 9.0 11.0 0.00 0.00 0.00 56 1023.0
20260831195004 74 248 2.0 7.0 0.00 0.00 0.00 60 1022.8
20260831194504 73 117 3.0 11.0 0.00 0.00 0.00 60 1022.9
20260831194004 73 110 5.0 13.0 0.00 0.00 0.00 62 1023.4
20260831193504 72 199 8.0 8.0 0.00 0.00 0.00 62 1023.4
20260831193003 72 170 8.0 12.0 0.00 0.00 0.00 62 1023.4
20260831192503 73 149 3.0 7.0 0.00 0.00 0.00 62 1023.4
20260831192003 72 212 4.0 10.0 0.00 0.00 0.00 64 1023.1
20260831191504 73 202 8.0 8.0 0.00 0.00 0.00 62 1023.2
20260831191004 74 94 0.0 3.0 0.00 0.00 0.00 60 1023.4
20260831190504 72 357 2.0 4.0 0.00 0.00 0.00 62 1023.2
20260831190004 72 291 2.0 8.0 0.00 0.00 0.00 61 1023.4
20260831185504 74 119 5.0 7.0 0.00 0.00 0.00 59 1023.6
20260831185003 73 10 3.0 7.0 0.00 0.00 0.00 62 1023.6
20260831184503 73 106 4.0 4.0 0.00 0.00 0.00 62 1023.7
20260831184004 73 116 9.0 10.0 0.00 0.00 0.00 62 1023.4
20260831183504 72 192 4.0 11.0 0.00 0.00 0.00 63 1023.4
20260831183004 72 97 3.0 13.0 0.00 0.00 0.00 64 1023.6
20260831182504 72 152 3.0 5.0 0.00 0.00 0.00 63 1023.4
20260831182004 72 160 5.0 9.0 0.00 0.00 0.00 63 1023.5
20260831181504 71 144 4.0 11.0 0.00 0.00 0.00 66 1023.2
20260831181004 73 119 13.0 14.0 0.00 0.00 0.00 62 1023.2
20260831180503 72 220 4.0 9.0 0.00 0.00 0.00 64 1023.5
20260831180003 72 141 5.0 10.0 0.00 0.00 0.00 63 1023.2
20260831175504 72 138 3.0 9.0 0.00 0.00 0.00 65 1023.4
20260831173504 70 149 4.0 8.0 0.00 0.00 0.00 68 1023.2
20260831173004 68 111 5.0 16.0 0.00 0.00 0.00 71 1023.0
20260831172504 68 110 7.0 9.0 0.00 0.00 0.00 72 1023.2
20260831172004 68 137 8.0 12.0 0.00 0.00 0.00 72 1023.0
20260831171504 68 144 4.0 10.0 0.00 0.00 0.00 72 1023.4
20260831171004 67 175 5.0 14.0 0.00 0.00 0.00 72 1023.1
20260831170504 67 147 5.0 11.0 0.00 0.00 0.00 73 1022.9
20260831170003 67 115 3.0 13.0 0.00 0.00 0.00 73 1023.0
20260831165503 67 134 2.0 13.0 0.00 0.00 0.00 72 1023.2
20260831165003 67 175 7.0 13.0 0.00 0.00 0.00 71 1023.0
20260831164503 67 136 8.0 16.0 0.00 0.00 0.00 71 1023.0
20260831164004 68 163 5.0 13.0 0.00 0.00 0.00 69 1022.9
20260831163503 68 141 14.0 17.0 0.00 0.00 0.00 67 1022.9
20260831163003 68 135 9.0 12.0 0.00 0.00 0.00 67 1023.0
20260831162504 68 125 5.0 8.0 0.00 0.00 0.00 66 1022.8
20260831162004 68 112 5.0 9.0 0.00 0.00 0.00 63 1022.8
20260831161503 69 118 6.0 7.0 0.00 0.00 0.00 62 1022.6
20260831161004 69 95 4.0 7.0 0.00 0.00 0.00 62 1022.6
20260831153504 68 204 9.0 11.0 0.00 0.00 0.00 59 1022.4
20260831153004 67 131 2.0 5.0 0.00 0.00 0.00 63 1022.4
20260831152504 65 211 11.0 13.0 0.00 0.00 0.00 62 1022.4
20260831152004 65 211 11.0 13.0 0.00 0.00 0.00 62 1022.3
20260831151504 65 211 11.0 13.0 0.00 0.00 0.00 62 1022.3
20260831151004 65 211 11.0 13.0 0.00 0.00 0.00 62 1022.3
20260831144004 63 221 0.0 3.0 0.00 0.00 0.00 65 1022.2
20260831143504 63 221 0.0 3.0 0.00 0.00 0.00 65 1022.1
20260831143004 63 221 0.0 3.0 0.00 0.00 0.00 65 1022.4
20260831142503 63 221 0.0 3.0 0.00 0.00 0.00 65 1022.4
20260831142003 63 221 0.0 3.0 0.00 0.00 0.00 65 1022.4
20260831141504 63 221 0.0 3.0 0.00 0.00 0.00 65 1022.3
20260831135004 62 226 2.0 2.0 0.00 0.00 0.00 67 1022.1
20260831133004 62 226 2.0 2.0 0.00 0.00 0.00 67 1021.9
20260831132504 62 226 2.0 2.0 0.00 0.00 0.00 67 1021.8
20260831132004 62 226 2.0 2.0 0.00 0.00 0.00 67 1021.9
20260831131503 62 226 2.0 2.0 0.00 0.00 0.00 67 1021.6
20260831131004 62 226 2.0 2.0 0.00 0.00 0.00 67 1021.7
20260831130504 62 226 2.0 2.0 0.00 0.00 0.00 67 1021.9
20260831130004 62 226 2.0 2.0 0.00 0.00 0.00 67 1021.5
20260831125503 62 226 2.0 2.0 0.00 0.00 0.00 67 1021.5
20260831111003 59 281 3.0 4.0 0.00 0.00 0.00 76 1020.9
20260831110503 59 281 3.0 4.0 0.00 0.00 0.00 76 1020.9
20260831110004 59 281 3.0 4.0 0.00 0.00 0.00 76 1021.4
20260831104004 59 281 3.0 4.0 0.00 0.00 0.00 76 1021.4
20260831103504 59 281 3.0 4.0 0.00 0.00 0.00 76 1021.3
20260831103005 59 281 3.0 4.0 0.00 0.00 0.00 76 1021.4
20260831102503 59 281 3.0 4.0 0.00 0.00 0.00 76 1021.6
20260831102004 59 281 3.0 4.0 0.00 0.00 0.00 76 1021.5
20260831090004 65 198 9.0 10.0 0.00 0.00 0.00 64 1022.3
20260831085504 65 198 9.0 10.0 0.00 0.00 0.00 64 1022.4
20260831085004 65 198 9.0 10.0 0.00 0.00 0.00 64 1022.1
20260831084504 65 198 9.0 10.0 0.00 0.00 0.00 64 1022.3
20260831084004 65 198 9.0 10.0 0.00 0.00 0.00 64 1022.2
20260831083503 65 198 9.0 10.0 0.00 0.00 0.00 64 1022.0
20260831083003 65 198 9.0 10.0 0.00 0.00 0.00 64 1022.2
20260831082504 65 198 9.0 10.0 0.00 0.00 0.00 64 1022.3
20260831082003 65 198 9.0 10.0 0.00 0.00 0.00 64 1022.0
20260831081503 65 198 9.0 10.0 0.00 0.00 0.00 64 1022.1
20260831081004 65 198 9.0 10.0 0.00 0.00 0.00 64 1022.2
20260831075503 66 95 10.0 11.0 0.00 0.00 0.00 63 1022.3
20260831075003 67 117 9.0 12.0 0.00 0.00 0.00 62 1022.1
20260831074504 67 116 7.0 13.0 0.00 0.00 0.00 58 1022.1
20260831074004 67 200 9.0 17.0 0.00 0.00 0.00 61 1022.0
20260831073504 67 200 9.0 17.0 0.00 0.00 0.00 61 1022.0
20260831073004 67 200 9.0 17.0 0.00 0.00 0.00 61 1022.3